Location: Balsareny
(41.8670°N, 1.8830°E)
Time: 10:59:05
(UTC+01:00)

Envisat - Pass Details

Date: 08 December 2021
Orbit: 764 x 766 km, 98.2° (Epoch: 15 January)

Event Time Altitude Azimuth Distance (km) Brightness Sun altitude
Rises 07:23:19 0° 355° (N) 3,241 6.0 -8.2°
Reaches altitude 10° 07:26:31 10° 334° (NNW) 2,309 5.0 -7.6°
Maximum altitude 07:29:25 16° 299° (WNW) 1,949 4.5 -7.1°
Drops below altitude 10° 07:32:18 10° 264° (W) 2,300 5.0 -6.6°
Sets 07:35:29 0° 242° (WSW) 3,221 5.9 -6.1°
